RH
73 70 73 72 71 73 73 70 64 63 66 58 48 38 38 44 63 67 60 46 40 37 40 40 38 38 39 39 43 42 45 46 49 52 53 54 55 51 50 46 50 50 53 53 54 55 40 26 34 35 31 29 34 37
69 68 69 70 73 73 74 69 67 66 65 62 52 48 42 43 43 41 40 40 38 38 41 41 41 40 40 42 42 44 43 44 46 49 51 53 54 55 51 51 45 48 40 44 42 38 28 29 29 31 34 36 40 43
68 67 71 78 77 72 75 72 70 69 66 59 56 54 52 52 50 47 43 41 36 38 41 44 44 42 42 42 42 42 44 41 43 41 45 47 45 48 50 49 43 41 40 42 39 31 33 35 37 38 41 44 46 51
82 76 77 80 78 76 75 73 72 69 65 61 55 49 49 46 43 40 39 38 36 34 36 43 43 47 47 47 47 46 45 46 47 45 47 47 44 43 45 41 45 40 43 42 44 40 41 41 42 44 46 48 54 60
89 81 80 79 81 82 78 73 72 70 66 60 55 51 48 45 43 41 40 39 39 37 39 42 41 45 48 50 50 50 49 50 50 51 52 50 47 48 49 51 49 42 45 48 45 41 43 42 44 48 52 55 57 61
94 89 81 79 84 85 82 77 72 71 70 68 64 58 53 50 47 45 42 40 40 38 38 44 45 45 43 43 45 45 47 46 48 47 50 49 46 49 55 55 42 38 40 43 44 46 48 51 54 55 56 60 65 72
95 88 79 75 79 84 82 80 76 73 69 67 67 65 64 60 57 52 48 50 50 48 45 50 48 47 47 48 48 49 50 51 53 53 53 52 52 54 57 57 42 50 51 53 54 56 56 55 55 59 67 75 78 80
96 90 82 76 71 72 73 74 73 71 69 68 67 66 65 65 63 61 57 55 56 56 55 59 57 53 54 55 56 56 56 56 58 60 61 62 66 69 68 54 55 56 58 58 58 59 60 63 66 74 81 82 84 90
98 97 90 83 78 73 65 64 67 69 68 68 67 66 65 65 64 64 64 63 60 57 56 56 52 52 54 57 60 61 62 64 64 68 70 72 72 69 62 59 58 57 58 59 61 63 68 73 78 85 86 87 96 94
98 98 96 93 88 82 79 73 69 67 68 69 69 68 67 67 67 65 66 61 60 60 58 56 51 52 50 54 57 60 64 67 68 66 69 67 63 62 63 65 66 68 68 70 75 79 81 83 88 92 97 97 95 91
91 95 97 98 96 94 92 86 81 80 76 74 75 74 72 71 69 68 69 66 65 63 59 58 56 54 56 61 70 75 79 77 76 73 82 77 76 73 73 71 70 71 74 79 82 85 90 93 97 98 93 93 95 81
72 74 82 91 94 94 96 94 93 90 86 81 73 73 73 71 70 72 73 73 71 71 67 65 66 71 76 82 88 89 90 89 86 83 86 80 78 77 78 78 79 82 84 86 89 91 93 97 97 97 92 81 74 70
65 65 62 67 77 89 96 97 97 96 93 90 88 84 79 78 80 79 77 77 74 77 84 89 92 95 95 95 96 98 98 95 91 91 89 86 85 87 87 86 86 88 89 92 93 95 95 90 89 90 85 77 69 66
61 61 64 64 62 63 69 81 93 98 98 97 98 98 97 94 90 91 90 91 91 92 93 93 94 95 96 98 98 98 98 97 95 91 87 89 89 89 88 88 85 89 95 95 91 88 88 85 79 74 69 68 66 64
45 47 53 57 61 59 59 64 70 74 88 95 96 98 95 93 93 92 96 97 97 96 95 96 96 96 96 97 96 98 98 97 94 92 92 93 95 96 92 91 93 93 93 91 92 90 87 78 71 70 67 60 52 46
39 38 38 43 45 49 55 56 58 60 62 68 78 89 92 92 93 93 93 94 95 96 97 97 96 96 96 96 94 95 96 94 95 97 98 98 97 97 97 97 97 92 90 90 87 82 75 68 61 55 50 48 46 44
28 31 33 34 36 37 37 40 50 50 54 61 64 66 72 76 77 77 79 81 82 84 87 89 89 91 95 96 96 97 97 97 97 96 95 95 94 94 92 88 84 81 76 71 66 61 57 52 48 47 45 42 40 40
19 26 28 27 27 26 27 30 33 37 47 53 54 54 58 60 63 62 62 65 69 70 73 77 80 84 88 90 92 94 96 93 92 93 96 94 88 83 78 75 68 62 56 51 49 48 47 45 43 42 42 44 44 48
20 19 18 23 25 26 28 32 34 38 40 44 47 49 51 54 55 57 58 58 57 56 56 60 66 69 74 76 78 80 80 79 81 79 70 62 59 58 54 50 47 43 40 40 40 41 42 46 48 49 50 49 48 47
18 20 21 19 24 30 31 34 36 38 45 49 49 53 51 53 54 54 55 54 54 53 53 54 56 55 53 51 52 52 54 52 51 47 46 48 49 47 44 41 39 39 38 39 43 45 45 47 50 52 53 52 48 41
14 15 17 18 22 29 35 37 38 39 42 42 45 47 50 53 53 54 54 56 56 54 54 54 56 56 56 56 57 56 56 53 50 51 51 49 46 44 40 39 40 41 42 43 45 49 52 54 50 45 43 42 45 46
19 19 22 23 26 33 36 41 42 46 45 46 46 48 50 52 53 55 55 55 53 55 58 62 63 65 64 63 64 59 53 48 45 42 42 41 41 41 41 41 43 47 50 51 53 53 51 50 49 49 48 45 45 45
21 20 22 26 30 36 45 44 48 49 51 53 54 54 54 55 57 58 60 59 63 70 71 70 68 70 71 69 63 58 52 48 45 45 44 45 46 48 49 51 55 57 57 59 60 56 54 53 50 45 43 43 44 44
28 29 31 33 37 43 46 51 53 55 56 61 62 61 61 63 67 70 67 67 76 77 76 73 70 68 67 63 60 57 53 52 52 51 50 53 56 59 62 62 61 63 64 60 55 52 48 44 42 42 42 42 43 44
39 43 41 43 45 47 51 53 59 67 68 70 75 75 76 78 80 76 73 75 78 78 77 75 72 68 65 62 62 62 60 58 56 58 60 61 63 65 65 66 66 62 53 47 43 40 39 37 35 33 32 34 35 37
47 50 50 56 58 59 65 73 76 77 76 83 83 83 87 89 89 83 81 86 87 85 83 79 76 73 70 66 64 63 62 61 61 61 63 66 68 68 65 57 48 45 44 41 37 34 31 28 27 29 31 34 36 39
79 83 84 79 77 82 85 85 89 96 96 90 93 93 96 98 96 90 93 90 88 86 82 80 76 71 66 62 62 64 65 67 69 71 71 68 60 50 44 42 40 38 34 31 28 26 26 28 31 34 37 39 43 46
90 94 95 96 98 94 94 96 98 98 98 98 98 98 98 96 94 94 92 90 86 82 78 78 74 69 68 69 72 75 76 72 65 59 51 46 45 43 41 39 36 31 28 28 29 31 33 35 37 40 44 46 49 52
98 98 98 95 94 97 98 98 98 98 98 98 96 94 92 89 86 84 83 83 82 82 78 76 76 78 79 78 74 66 59 50 43 42 43 43 43 42 38 32 29 29 30 32 35 37 38 40 42 45 48 50 52 56
91 91 92 92 90 88 86 87 89 88 87 86 84 81 80 80 80 80 79 78 79 79 77 73 68 64 59 52 46 44 43 45 48 48 47 43 36 31 30 30 31 33 35 37 38 38 40 43 45 48 50 53 58 62
84 85 84 82 85 84 82 82 81 81 80 77 74 71 68 66 63 62 60 58 56 55 54 49 47 45 45 45 47 49 51 50 46 40 35 32 32 32 32 33 34 37 38 37 38 39 43 46 47 49 52 56 61 65
58 62 62 64 64 62 57 56 52 50 50 48 46 45 45 46 47 46 48 49 50 50 51 50 50 51 52 52 52 52 49 43 37 33 32 32 34 35 36 36 36 36 37 38 41 46 48 47 51 54 58 61 66 71
45 45 45 47 47 47 46 38 39 44 45 46 47 50 52 55 57 57 57 58 58 57 55 53 52 52 52 51 49 45 40 34 30 30 34 36 37 37 36 37 39 39 40 43 47 49 46 50 56 59 62 66 71 75